Location: ??????
(56.0120°N, 39.1740°E)
Time: 05:24:16
(UTC+00:00)

Cosmos 1437 Rocket - Pass Details

Date: 14 April 2026
Orbit: 441 x 476 km, 81.2° (Epoch: 10 May)

Event Time Altitude Azimuth Distance (km) Brightness Sun altitude
Exits shadow 22:55:26 49° 95° (E) 582 3.0 -21.6°
Drops below altitude 10° 22:58:42 10° 23° (NNE) 1,582 6.3 -21.4°
Sets 23:00:50 0° 18° (NNE) 2,463 7.7 -21.3°
